Wind_Speed
111 112 115 117 114 112 111 108 107 107 104 99 94 92 92 91 90 87 86 85 83 83 80 81 78 75 73 73 74 76 77 77 78 76 76 77 78 79 77 77 78 78 77 75
102 104 109 118 123 111 111 109 108 106 103 101 98 91 93 95 93 90 88 88 87 85 82 82 80 78 76 77 78 79 80 81 81 80 79 78 80 81 81 79 79 79 78 78
96 101 103 111 116 117 100 101 106 106 104 102 96 91 92 96 94 90 87 87 85 87 84 83 80 79 81 81 81 80 80 82 84 83 81 79 80 80 82 82 84 83 80 80
92 95 102 104 113 116 108 102 98 101 101 97 95 92 98 96 91 89 87 86 84 81 81 81 81 80 82 83 83 83 84 85 84 83 82 83 83 82 84 85 85 84 83 84
87 93 98 101 104 108 111 104 98 91 89 89 89 88 94 91 89 88 88 85 82 81 82 78 79 79 80 81 83 84 85 85 84 84 85 86 87 86 86 87 88 90 89 88
80 84 89 91 98 104 109 104 95 93 91 88 86 82 86 88 82 83 83 82 80 78 83 82 82 81 81 82 83 83 85 85 87 88 89 90 91 92 92 92 93 94 94 95
75 79 78 81 84 90 98 105 100 83 81 83 87 88 87 86 84 79 79 77 78 80 80 80 81 84 85 86 86 87 88 90 91 92 93 94 95 96 95 96 97 98 98 98
67 69 71 72 76 80 86 97 102 100 80 79 83 83 83 85 83 82 81 82 82 79 78 80 81 84 87 89 89 91 93 95 97 99 100 101 101 102 103 104 104 105 105 107
60 63 65 66 68 69 73 80 93 101 103 90 81 81 82 85 86 86 84 85 86 87 88 88 89 89 90 92 95 96 99 101 103 105 106 108 110 111 112 113 113 112 112 114
54 56 60 61 62 63 68 76 79 86 94 100 100 93 86 83 87 86 88 88 86 87 89 89 90 90 92 95 98 101 104 107 111 113 115 117 118 118 118 119 117 116 114 112
48 51 56 58 61 63 63 68 69 73 77 81 90 94 98 94 92 91 92 90 90 90 90 91 93 95 99 102 103 102 102 102 103 105 106 106 105 104 103 102 103 104 103 103
42 44 50 52 55 57 58 58 62 63 68 78 83 85 86 87 88 92 93 92 93 94 93 90 87 85 83 83 84 86 89 91 93 96 99 100 100 101 100 98 96 94 92 91
36 40 44 49 52 53 55 55 57 62 68 70 69 71 74 75 78 78 78 78 77 76 75 75 73 73 72 74 76 76 79 79 82 88 92 93 91 88 88 89 87 83 82 83
32 33 38 45 49 51 52 54 59 62 61 60 60 63 64 65 65 64 65 66 68 69 66 67 65 66 63 58 58 64 67 73 76 79 78 74 74 76 74 74 73 70 70 70
29 29 29 34 42 45 52 52 54 57 58 59 56 57 56 53 51 53 56 56 56 59 61 58 52 47 46 50 56 60 60 60 59 61 58 52 51 54 56 59 63 64 66 64
27 28 27 28 31 36 43 47 48 49 53 53 56 54 52 48 48 47 48 52 49 48 44 38 39 42 43 45 47 46 40 37 39 43 44 35 28 29 32 34 39 45 52 56
27 29 29 28 29 32 35 38 40 42 45 48 47 41 43 44 45 45 45 43 36 32 32 32 37 35 37 37 34 36 36 38 38 38 35 28 25 22 21 20 21 25 30 32
19 24 28 29 28 27 27 27 28 30 32 33 32 33 34 36 39 37 29 30 28 27 24 29 32 33 27 28 28 28 26 28 32 36 33 32 27 22 17 14 11 10 9 11
18 20 22 24 25 25 25 26 27 29 29 28 29 29 29 31 29 26 28 29 27 19 23 28 29 30 24 25 26 21 22 21 22 25 26 25 26 26 22 17 17 16 13 12
11 13 15 16 16 17 18 20 22 23 24 26 27 29 29 28 27 27 28 26 27 25 25 31 26 26 23 22 24 20 17 17 17 21 21 23 24 24 22 20 21 22 23 21
15 13 14 16 15 16 18 20 23 23 25 26 28 29 29 29 29 27 27 28 28 29 23 24 23 23 21 19 21 17 16 17 16 14 17 19 20 18 19 19 19 20 21 21
19 19 18 17 17 19 22 23 22 22 22 23 28 31 31 30 29 28 25 27 25 23 26 22 22 22 19 19 21 20 18 16 18 22 17 13 15 18 19 20 21 20 20 21
20 20 19 20 21 21 21 20 19 20 22 27 31 31 33 34 33 29 28 29 23 26 25 23 21 21 19 17 17 19 20 19 14 14 17 16 15 18 20 21 22 21 20 19
23 23 21 22 21 21 21 20 21 22 24 26 27 30 33 34 34 33 31 30 29 29 21 23 21 21 19 18 17 17 18 18 18 14 15 16 15 16 16 16 17 19 21 23
25 22 21 21 22 21 21 21 21 22 21 24 26 29 31 34 33 30 27 25 26 27 24 22 21 20 20 19 19 17 17 18 19 19 17 15 12 13 16 19 22 24 26 28
26 22 20 19 20 21 20 21 20 21 23 25 29 29 29 30 30 28 28 25 24 28 27 24 22 22 22 22 21 20 19 20 20 19 17 14 15 18 21 24 26 26 27 28
Wind_Direction
216 216 216 217 222 225 227 227 228 229 231 233 236 236 240 242 242 245 248 249 251 254 258 258 261 264 267 269 270 272 273 273 274 275 276 277 276 276 276 276 278 278 279 280
216 216 215 217 218 223 227 229 231 232 234 234 235 234 240 241 243 245 249 250 251 253 254 259 263 262 266 268 268 269 271 272 274 275 274 274 274 276 276 276 276 277 278 280
214 215 215 217 219 221 224 228 232 235 236 236 236 237 240 243 243 246 250 252 255 255 256 259 262 263 267 267 266 268 268 271 273 273 272 272 273 274 275 275 276 277 278 280
215 213 215 216 217 221 223 225 229 233 237 239 241 243 245 245 248 250 252 254 257 260 260 261 265 265 267 267 266 266 266 267 268 269 271 273 272 273 274 275 276 277 277 277
216 215 215 215 216 218 221 224 225 228 233 237 240 241 245 248 250 252 255 257 258 258 262 262 261 261 262 262 262 264 264 264 264 265 266 268 270 270 270 272 273 275 276 277
217 218 218 217 219 218 221 223 227 229 230 231 232 235 241 246 246 248 252 253 255 257 262 261 259 260 262 262 263 263 263 264 265 266 267 268 268 270 271 272 273 274 275 276
215 221 219 219 220 221 221 226 224 226 229 232 235 237 239 242 244 247 251 253 256 258 257 257 260 264 265 264 265 265 266 265 266 267 268 269 269 270 270 272 273 273 273 274
218 223 223 222 220 219 221 224 227 225 228 230 233 235 236 241 243 245 249 251 254 254 256 257 259 261 264 266 267 269 269 269 269 269 270 270 270 270 269 269 270 272 273 275
217 220 224 224 223 223 223 224 227 229 229 229 232 233 236 240 243 248 250 252 253 253 256 259 261 263 266 268 269 271 271 271 271 271 272 272 272 271 271 270 270 270 270 272
217 220 223 223 222 223 223 224 226 229 232 235 236 237 237 239 245 248 250 255 257 258 260 262 263 266 268 268 270 272 272 273 273 273 273 273 272 271 271 271 270 270 270 269
215 217 219 222 223 223 222 224 227 234 236 238 239 239 240 244 248 249 252 255 257 261 263 264 266 268 270 271 273 274 275 276 276 276 276 277 276 274 273 271 270 269 267 266
212 217 219 220 222 224 225 226 225 225 230 236 239 242 244 246 248 251 254 257 261 265 267 269 270 271 271 272 274 275 278 278 279 279 279 279 278 277 275 272 269 266 264 263
211 213 216 218 219 220 223 225 228 229 232 238 241 243 244 247 252 254 257 259 262 265 267 269 272 276 278 279 281 281 282 284 284 283 282 282 281 278 276 273 270 266 263 261
207 210 213 217 218 220 223 227 227 230 232 236 238 241 244 248 252 255 257 261 262 264 269 272 275 278 279 284 284 285 289 289 289 289 289 288 283 278 273 269 267 263 261 259
206 211 213 214 217 219 223 228 230 231 235 237 238 241 246 249 250 252 256 259 263 266 270 275 277 284 288 288 291 292 294 296 297 296 294 289 281 277 274 270 265 259 257 256
211 212 216 213 216 219 222 225 228 230 234 237 239 241 243 248 252 255 258 264 263 266 271 280 286 288 285 294 293 299 302 315 319 313 311 302 297 291 285 278 272 265 260 256
211 212 214 215 218 220 222 224 226 229 233 234 238 242 244 248 254 257 257 261 263 270 281 286 292 287 294 293 304 315 326 339 346 344 343 342 338 326 311 299 287 278 271 264
207 213 217 220 220 221 222 224 225 229 234 237 239 240 242 247 247 245 248 253 263 279 295 292 290 287 294 297 313 329 337 342 355 355 4 3 9 12 18 5 349 326 314 291
215 214 215 216 219 221 222 225 226 228 229 228 226 225 218 220 229 235 243 255 274 273 283 292 290 288 296 300 309 322 335 338 350 352 357 5 24 32 40 34 54 52 62 57
195 184 180 185 188 187 187 189 189 191 191 195 200 205 212 219 227 236 252 266 271 272 274 290 287 291 296 293 298 308 321 333 337 342 348 359 7 18 37 40 40 43 51 48
186 186 179 180 183 187 193 196 201 200 200 199 201 209 216 224 234 244 255 269 277 289 287 286 286 290 289 288 295 301 317 323 331 337 340 345 348 1 10 22 23 21 17 16
201 203 204 212 214 206 196 195 196 199 203 210 215 220 221 226 237 249 260 268 283 293 309 290 281 284 288 288 292 292 298 314 326 323 337 340 341 351 0 6 9 8 1 353
222 220 209 192 188 190 195 206 216 222 222 218 222 225 227 237 243 254 263 273 283 298 303 293 283 279 278 286 292 295 294 305 314 316 316 326 336 341 348 351 352 349 343 336
185 185 188 193 198 203 211 219 224 225 224 224 227 232 240 250 255 262 272 276 289 291 301 289 280 271 272 276 284 289 295 298 305 300 308 320 330 334 339 342 338 329 322 318
194 196 200 203 207 213 221 224 230 225 220 225 231 239 250 259 264 266 273 278 285 289 300 285 280 274 269 272 273 278 284 291 292 295 300 307 313 319 321 321 321 322 321 318
205 205 211 213 217 223 226 228 230 227 225 230 237 246 253 259 267 273 274 283 285 289 294 285 281 275 272 269 272 277 282 286 287 293 296 296 307 316 317 314 313 313 313 316
Height
10472 10495 10528 10544 10558 10571 10585 10598 10609 10620 10636 10652 10666 10682 10677 10682 10686 10691 10699 10707 10713 10717 10718 10723 10728 10730 10734 10735 10734 10732 10732 10732 10732 10735 10737 10735 10733 10731 10732 10730 10728 10726 10723 10721
10465 10488 10506 10522 10537 10553 10568 10584 10597 10609 10623 10637 10651 10667 10660 10661 10670 10679 10689 10694 10699 10704 10709 10710 10713 10717 10719 10720 10720 10720 10718 10717 10717 10721 10722 10720 10717 10715 10714 10713 10711 10710 10707 10705
10454 10475 10493 10511 10528 10546 10560 10572 10582 10597 10608 10622 10636 10649 10646 10646 10658 10671 10677 10678 10683 10690 10693 10697 10700 10701 10703 10704 10705 10705 10704 10703 10701 10701 10701 10703 10701 10699 10695 10694 10691 10691 10693 10690
10441 10460 10477 10495 10514 10530 10547 10559 10573 10583 10597 10611 10622 10634 10624 10636 10647 10656 10663 10664 10671 10674 10677 10682 10685 10687 10688 10689 10690 10691 10689 10688 10685 10683 10684 10681 10683 10682 10676 10674 10673 10674 10675 10674
10437 10452 10465 10484 10500 10518 10532 10549 10562 10577 10589 10599 10607 10616 10612 10627 10636 10640 10647 10653 10659 10662 10665 10666 10668 10671 10672 10672 10673 10672 10670 10669 10667 10666 10667 10665 10662 10662 10660 10657 10655 10654 10655 10656
10432 10445 10463 10481 10494 10510 10525 10542 10554 10566 10578 10587 10595 10600 10604 10613 10624 10628 10635 10640 10645 10649 10650 10650 10650 10652 10653 10656 10656 10655 10653 10651 10649 10647 10647 10647 10645 10643 10642 10639 10636 10634 10634 10635
10429 10436 10457 10474 10488 10508 10521 10532 10546 10555 10568 10578 10582 10590 10596 10600 10611 10617 10622 10627 10630 10632 10632 10633 10635 10635 10635 10636 10636 10636 10634 10633 10631 10629 10626 10626 10624 10623 10624 10620 10618 10614 10611 10611
10428 10439 10452 10467 10481 10496 10510 10523 10534 10546 10557 10563 10567 10577 10583 10588 10597 10606 10612 10613 10613 10616 10618 10618 10617 10617 10618 10618 10618 10616 10614 10609 10608 10605 10604 10604 10602 10602 10601 10598 10596 10595 10592 10588
10427 10436 10446 10459 10473 10488 10501 10511 10521 10532 10540 10547 10556 10563 10570 10577 10586 10592 10596 10597 10599 10602 10602 10603 10603 10604 10604 10602 10598 10594 10590 10586 10582 10581 10579 10577 10574 10573 10573 10572 10572 10572 10571 10565
10424 10433 10442 10453 10465 10477 10488 10499 10509 10517 10527 10536 10543 10550 10558 10566 10573 10579 10578 10581 10586 10587 10588 10590 10590 10590 10587 10581 10576 10570 10568 10563 10557 10554 10550 10545 10544 10542 10540 10539 10539 10538 10539 10539
10420 10428 10437 10447 10457 10466 10478 10490 10502 10510 10517 10522 10529 10536 10547 10555 10563 10563 10564 10568 10570 10573 10573 10573 10572 10570 10567 10563 10556 10550 10543 10537 10531 10522 10515 10510 10506 10503 10503 10503 10503 10502 10505 10508
10415 10423 10432 10442 10451 10462 10472 10481 10490 10496 10503 10508 10516 10526 10535 10543 10545 10547 10551 10554 10556 10558 10557 10555 10553 10550 10546 10542 10536 10529 10521 10512 10505 10496 10487 10480 10473 10465 10463 10464 10465 10468 10473 10477
10413 10420 10427 10435 10443 10453 10462 10472 10481 10487 10492 10497 10508 10517 10523 10528 10527 10535 10538 10541 10542 10542 10539 10537 10536 10533 10529 10524 10518 10510 10501 10494 10483 10469 10457 10449 10441 10434 10429 10425 10428 10437 10443 10449
10410 10415 10421 10428 10436 10445 10454 10462 10470 10475 10483 10491 10497 10504 10511 10514 10518 10524 10526 10526 10526 10526 10524 10522 10523 10519 10514 10510 10501 10493 10486 10474 10460 10446 10433 10422 10411 10402 10398 10397 10399 10407 10413 10421
10406 10412 10418 10424 10430 10438 10446 10453 10460 10466 10474 10479 10489 10493 10500 10504 10507 10510 10512 10512 10513 10511 10511 10510 10507 10504 10500 10493 10485 10477 10469 10457 10442 10428 10414 10400 10388 10381 10378 10378 10379 10383 10390 10396
10404 10409 10414 10419 10425 10431 10438 10445 10451 10458 10464 10472 10477 10482 10490 10493 10495 10498 10499 10499 10498 10499 10500 10499 10495 10491 10487 10482 10473 10467 10458 10445 10429 10413 10398 10385 10376 10371 10369 10366 10366 10368 10372 10378
10401 10406 10411 10416 10421 10426 10431 10437 10443 10449 10456 10464 10468 10474 10479 10483 10485 10486 10486 10487 10489 10489 10490 10488 10484 10480 10477 10471 10464 10456 10445 10434 10421 10408 10393 10383 10374 10368 10365 10362 10360 10360 10361 10365
10400 10403 10408 10413 10418 10422 10427 10432 10438 10443 10449 10454 10459 10464 10468 10472 10473 10475 10478 10479 10481 10482 10480 10478 10475 10472 10469 10462 10456 10449 10441 10433 10421 10410 10397 10388 10380 10373 10367 10363 10361 10359 10359 10360
10399 10402 10406 10410 10414 10419 10424 10428 10433 10437 10442 10447 10452 10456 10460 10463 10466 10470 10472 10473 10474 10474 10474 10471 10466 10463 10458 10453 10450 10444 10438 10430 10423 10416 10408 10399 10391 10384 10378 10373 10368 10366 10366 10365
10398 10400 10404 10407 10411 10416 10420 10424 10428 10433 10438 10442 10446 10450 10454 10457 10461 10464 10466 10466 10467 10467 10466 10462 10457 10455 10450 10447 10444 10439 10434 10429 10423 10416 10410 10403 10397 10390 10385 10382 10378 10376 10374 10375
10397 10400 10403 10406 10411 10415 10418 10422 10426 10430 10434 10437 10442 10445 10449 10453 10455 10458 10459 10460 10460 10458 10456 10453 10449 10447 10443 10440 10438 10434 10430 10425 10420 10416 10410 10405 10400 10395 10391 10386 10382 10379 10378 10378
10395 10398 10401 10405 10409 10412 10415 10418 10423 10427 10431 10435 10438 10441 10444 10447 10449 10452 10453 10454 10452 10450 10447 10445 10443 10440 10437 10433 10431 10428 10425 10421 10417 10412 10410 10405 10400 10397 10392 10388 10385 10383 10382 10382
10392 10395 10398 10402 10406 10410 10413 10417 10421 10425 10428 10430 10433 10436 10439 10441 10443 10446 10446 10446 10446 10443 10441 10438 10435 10433 10431 10427 10425 10422 10419 10416 10413 10410 10407 10403 10399 10395 10392 10389 10387 10386 10385 10383
10388 10392 10396 10399 10403 10406 10409 10413 10416 10419 10422 10425 10429 10432 10434 10435 10437 10439 10439 10439 10438 10435 10433 10430 10428 10426 10424 10422 10420 10418 10415 10412 10409 10407 10405 10401 10397 10394 10392 10390 10387 10385 10383 10380
10386 10389 10393 10396 10400 10403 10406 10408 10411 10414 10418 10421 10424 10427 10429 10429 10430 10432 10432 10432 10430 10427 10425 10422 10420 10418 10416 10416 10414 10413 10410 10408 10406 10403 10401 10398 10395 10393 10391 10388 10385 10382 10379 10376
10381 10386 10389 10392 10395 10399 10402 10405 10407 10410 10413 10416 10419 10421 10422 10422 10423 10424 10423 10423 10422 10419 10416 10413 10412 10410 10409 10409 10408 10406 10405 10403 10400 10398 10396 10393 10391 10389 10386 10383 10380 10377 10373 10369